Vertical_Velocity
1 1 2 -1 7 -5 -6 -12 -4 -37 -12 -2 6 -26 25 -10 0 32 -4 2 3 -0 1 3 4 -0 -3 -3 -1 -2 2 -2 -1 -2 -0 -2 -0 -3 -2 -1 0 -3 -0 1 2 -0 -0 -2 -4
-1 2 -1 -1 5 14 -14 4 -14 -36 75 -4 -1 -2 2 -4 4 5 -2 2 -3 1 4 5 -0 -1 -3 0 0 4 -3 -0 1 -2 3 -0 1 -0 -2 -3 -5 -2 -2 -0 -0 1 -1 1 -0
-4 1 -4 -3 -2 -3 31 -7 2 -5 -18 5 1 -1 -3 -0 1 -5 7 4 2 0 7 -8 -1 -2 -4 -1 0 3 -4 -1 -1 1 0 -1 2 -4 -2 -2 -5 -1 -3 -1 -5 1 -1 -0 -2
4 -3 -8 -6 5 -5 -3 -64 7 -16 1 1 -0 0 -0 -6 3 17 11 13 2 -10 18 12 -1 -0 1 -2 -0 -2 -2 1 -3 1 -1 0 1 1 2 -1 -1 -1 4 -2 -2 -3 -1 -0 -3
-1 5 4 6 -14 15 -12 -0 12 -13 2 2 5 -2 -6 -7 -5 -21 13 11 4 14 -7 3 4 -0 1 -0 -4 -3 1 3 -1 0 3 -3 -4 1 -2 1 -1 1 -6 -2 -1 2 2 -9 -5
2 -1 13 1 3 6 -11 -1 -26 32 -8 -1 -1 -10 -8 -9 -15 -22 -0 -4 -26 2 -5 4 6 -0 -2 -1 0 -4 0 -1 -2 0 -0 -4 -0 2 3 5 -4 -10 2 3 -1 4 2 -5 -5
-5 18 -11 17 14 -26 6 24 -1 4 -28 -10 5 -15 1 -7 -14 11 -4 -6 -18 -16 2 7 1 -6 -3 1 -2 -1 0 1 5 -1 -0 1 2 -3 0 -1 -1 -1 -1 2 2 2 0 -1 -2
4 9 -1 -14 -21 8 -21 50 6 -21 -8 -23 5 -8 -2 -3 -0 6 -31 -5 18 3 0 -0 -0 -1 2 1 -6 3 1 2 0 -0 -1 -1 -3 1 -1 -4 -0 -5 -0 -0 -2 1 3 1 -2
-11 4 15 -49 7 23 46 -17 12 -4 -2 19 -10 30 1 -6 8 -0 25 7 -4 9 1 -0 -1 3 2 -4 -1 0 -0 -1 4 -2 2 -2 2 -2 -5 -3 -1 -3 -1 2 -0 -3 -1 -1 -1
-2 -2 21 -13 -6 -24 8 -6 6 7 10 16 6 -14 -3 0 6 15 16 8 6 -1 0 -4 4 4 0 -1 -3 1 0 3 2 -2 6 -1 4 -3 1 -4 0 2 -0 -4 -3 -2 -2 3 0
-9 -6 -27 10 61 76 34 18 -16 -10 -25 -18 17 -9 -3 -1 0 3 32 -0 1 1 1 2 0 -1 -3 -1 1 1 3 1 1 -0 -1 3 2 -3 1 -7 -8 -2 -0 -2 -5 -3 0 3 3
1 -2 -13 11 -50 69 -9 -1 -27 -41 -10 -10 3 -5 -4 1 4 -7 9 -1 -2 4 -3 2 -2 -2 -1 4 -1 1 4 1 2 -1 5 8 1 1 4 3 -1 -2 -3 -2 -2 4 -1 -0 -0
-17 -4 9 -34 6 9 -18 8 -65 45 -6 8 -6 -8 1 -2 8 17 -3 0 2 -0 1 -3 -1 -1 -1 2 2 -1 0 2 -5 0 -5 -2 5 -3 16 20 -4 -9 0 -3 -2 -2 -1 -2 -2
7 7 -37 18 -2 0 12 -15 47 -12 7 2 -1 -3 0 -2 -5 -3 -0 0 -3 -2 -4 -1 -2 -1 -1 -3 -1 -0 -4 -0 -1 -6 1 -4 1 6 0 -2 -2 -1 5 -1 -2 -6 0 0 -2
3 -7 -3 -3 10 -4 1 -15 3 -3 -0 -3 -4 3 -1 6 4 1 2 3 0 -1 -2 1 -2 -2 -3 -5 -5 6 3 5 3 3 -16 -6 -3 4 5 -2 2 3 2 -3 2 0 -2 -3 -2
-29 -13 7 -21 -9 15 21 22 -3 -2 -3 4 3 -3 2 0 -0 2 -1 -2 -3 -3 -0 1 -1 -5 -1 -2 -4 -2 5 -2 -0 -20 -8 -3 6 -3 1 1 -2 -2 -1 -3 -4 -4 -3 -4 -1
-2 -11 10 -6 -10 -4 -2 13 -6 -5 3 0 -2 -0 -0 1 -1 -3 2 2 2 2 1 0 -3 -2 8 5 14 12 -13 -13 6 -28 -6 -6 0 -1 4 0 -3 -5 -3 -5 -2 -0 -6 -5 -2
5 7 12 7 -12 -8 -6 15 -3 -5 5 -3 -0 1 1 -2 0 -0 2 1 2 -3 -4 -1 -1 8 -1 10 4 -4 -1 1 -9 -2 2 -2 -5 -3 -5 -3 3 2 -3 -4 -3 -3 -2 -2 -4
18 8 1 2 -8 4 -0 -4 1 -2 -4 -7 -0 -1 -2 5 -4 1 2 2 2 2 -3 3 0 2 2 1 0 -2 -2 0 -3 1 -1 1 -3 -8 -1 -0 -3 -5 -5 -5 -1 -2 -2 -1 -1
0 10 12 7 -7 7 -12 -0 -7 -3 -2 -0 1 1 1 -3 3 -1 -3 3 3 5 -2 4 2 1 0 -0 -3 -4 -4 -2 -3 -5 -2 0 2 3 -2 -1 -4 -4 -0 -4 -7 -3 -3 -1 -5
1 15 9 2 -7 -10 9 12 -3 -5 1 1 3 5 -2 1 -4 1 2 -1 1 2 2 1 -1 -1 -2 -1 -0 -1 -0 1 2 2 -2 4 -3 -6 -2 -1 0 -1 -3 -3 -2 -2 -6 -4 -3
23 -4 -4 1 -3 5 -13 -2 8 9 1 -4 -5 -0 1 -2 1 1 1 -3 0 -1 0 -2 -0 -2 -1 2 -2 -2 -2 7 2 -0 -5 -1 -5 1 -1 -3 -4 -4 -3 -1 -3 -3 -2 -4 -4
21 7 1 -1 9 -9 14 8 3 1 4 4 0 2 1 3 1 1 -1 -2 -2 0 -1 0 1 2 2 1 -0 1 3 4 1 -0 2 -5 2 -10 -6 -1 -4 -4 -2 -2 -3 -6 -7 -6 -4
-5 -9 -5 -4 -2 8 -18 19 22 4 14 -4 -1 4 4 4 2 2 -3 -1 1 -1 -1 0 0 -1 -2 -1 1 1 0 1 1 -6 1 1 0 -3 -4 -6 -5 -4 -2 -3 -3 -0 -1 -3 1
-2 -3 1 8 10 -10 0 -5 -23 -8 -4 4 -3 1 1 0 0 0 -1 -1 -2 -2 -2 -1 -2 -2 -1 -1 -1 0 2 0 3 -3 3 0 0 1 2 1 -1 -1 -1 -2 -6 -4 3 0 1
-9 25 10 0 3 -1 -9 -6 27 -12 -4 -3 -2 -0 0 -0 -1 -0 -0 1 -2 -2 -1 -1 -5 -4 -2 -1 -2 -4 -2 -0 -1 2 -2 1 -0 0 -1 -1 -4 -5 -3 -2 -3 -2 3 -2 3
10 -1 1 -0 -7 4 -9 9 -5 -4 -5 -3 -3 -2 -2 -2 -2 1 -1 -1 -1 -1 -4 -1 -0 -3 -1 -1 -3 -2 -0 -2 2 -2 0 -0 0 1 -0 1 1 1 -0 -1 -2 -7 1 5 1
-8 10 4 -1 0 -0 1 -3 20 -2 -1 -2 -2 -3 -3 -2 -2 -0 1 0 1 -2 -5 1 2 -4 2 -2 2 1 0 3 -2 -2 -3 1 -0 -1 -2 -2 -2 -2 -1 -2 -1 -4 -1 4 5
-3 -0 -3 -1 4 2 0 10 -5 -1 -3 -3 -0 -1 -1 -1 -0 0 0 -4 2 1 -3 1 -1 -1 -2 2 3 -1 3 -2 -2 -3 -0 -1 -2 -3 -2 -1 -1 -2 -1 1 -1 -1 4 0 -1
-8 6 6 6 -1 -3 2 -2 -3 -6 -3 -1 2 -2 0 1 3 2 0 -1 0 1 -0 -0 0 -1 -2 -1 4 0 -2 -3 -0 -1 -2 -2 -1 -1 -1 -0 0 -1 -2 -2 -5 -2 -1 -2 -2
Height
3146 3148 3149 3151 3158 3150 3143 3140 3140 3143 3143 3144 3142 3148 3149 3146 3147 3149 3147 3147 3150 3154 3158 3160 3163 3166 3169 3172 3173 3175 3175 3176 3176 3176 3176 3176 3176 3176 3177 3177 3177 3177 3176 3176 3175 3175 3174 3172 3171
3145 3147 3149 3151 3153 3143 3137 3136 3138 3136 3119 3138 3138 3143 3144 3143 3146 3145 3146 3148 3149 3154 3157 3159 3164 3166 3169 3172 3173 3175 3175 3176 3176 3176 3176 3176 3176 3176 3177 3177 3177 3176 3176 3176 3176 3175 3174 3172 3172
3144 3146 3150 3150 3147 3140 3134 3136 3134 3137 3136 3140 3138 3139 3139 3142 3142 3143 3145 3147 3151 3155 3157 3160 3163 3166 3169 3171 3173 3174 3174 3175 3175 3175 3176 3176 3176 3176 3177 3177 3177 3177 3177 3177 3177 3176 3174 3172 3172
3144 3147 3148 3147 3140 3138 3137 3135 3135 3136 3142 3138 3138 3139 3140 3141 3141 3140 3144 3146 3150 3154 3157 3160 3163 3166 3168 3171 3172 3173 3174 3174 3174 3174 3175 3176 3177 3177 3177 3177 3177 3177 3177 3177 3175 3175 3175 3172 3172
3142 3147 3147 3142 3138 3135 3139 3135 3138 3138 3141 3140 3140 3139 3140 3141 3143 3142 3143 3146 3151 3152 3157 3162 3163 3166 3168 3170 3172 3172 3173 3173 3174 3174 3174 3176 3177 3177 3178 3177 3177 3177 3176 3176 3176 3174 3173 3172 3171
3145 3146 3143 3136 3133 3135 3139 3134 3133 3134 3138 3139 3139 3139 3140 3142 3139 3141 3145 3147 3148 3150 3158 3161 3163 3165 3167 3170 3171 3171 3172 3173 3173 3173 3174 3176 3177 3178 3177 3177 3177 3176 3177 3176 3174 3173 3172 3170 3169
3143 3144 3138 3134 3133 3137 3137 3134 3138 3138 3133 3137 3138 3141 3140 3138 3140 3143 3145 3147 3151 3156 3160 3162 3164 3165 3167 3168 3170 3170 3172 3173 3173 3174 3175 3176 3176 3176 3177 3179 3177 3176 3176 3175 3173 3172 3170 3168 3167
3142 3142 3137 3135 3134 3134 3134 3132 3132 3138 3133 3137 3138 3139 3139 3139 3141 3141 3141 3144 3155 3154 3161 3162 3163 3165 3166 3167 3169 3170 3171 3173 3173 3174 3175 3175 3176 3177 3176 3176 3175 3174 3174 3173 3172 3171 3169 3166 3165
3140 3140 3133 3135 3130 3133 3124 3127 3127 3132 3135 3139 3142 3141 3140 3140 3140 3137 3142 3146 3155 3155 3160 3162 3163 3164 3165 3167 3168 3170 3172 3173 3173 3174 3175 3176 3174 3175 3175 3175 3174 3173 3172 3171 3170 3169 3167 3165 3163
3139 3137 3133 3133 3132 3130 3124 3131 3132 3136 3137 3140 3142 3139 3141 3140 3142 3145 3148 3149 3154 3157 3160 3161 3163 3164 3166 3168 3169 3170 3171 3172 3173 3173 3174 3175 3174 3174 3174 3173 3172 3172 3170 3169 3168 3167 3165 3163 3161
3137 3135 3134 3134 3132 3134 3130 3132 3129 3132 3140 3140 3142 3139 3141 3141 3143 3146 3143 3152 3156 3158 3160 3162 3163 3165 3167 3168 3168 3170 3170 3172 3172 3173 3174 3174 3174 3174 3173 3172 3170 3169 3168 3167 3166 3164 3162 3160 3159
3137 3136 3135 3132 3129 3131 3129 3129 3130 3135 3138 3141 3140 3140 3140 3145 3146 3148 3154 3155 3157 3159 3161 3162 3164 3164 3166 3166 3167 3169 3170 3171 3172 3174 3174 3174 3174 3173 3172 3172 3170 3168 3166 3166 3163 3162 3159 3157 3154
3135 3136 3134 3127 3132 3134 3135 3136 3128 3138 3140 3141 3139 3142 3146 3149 3150 3153 3156 3157 3158 3159 3160 3161 3162 3163 3164 3165 3166 3166 3169 3170 3169 3172 3173 3173 3172 3171 3165 3167 3167 3166 3163 3161 3160 3158 3155 3153 3150
3135 3135 3135 3136 3135 3136 3137 3138 3137 3139 3141 3141 3141 3146 3149 3151 3153 3155 3157 3158 3158 3159 3160 3161 3163 3163 3164 3164 3165 3166 3167 3168 3168 3168 3170 3171 3170 3166 3164 3163 3161 3161 3159 3157 3155 3153 3150 3147 3144
3134 3136 3137 3137 3138 3139 3137 3141 3141 3142 3142 3143 3146 3150 3151 3153 3155 3157 3158 3158 3159 3161 3161 3162 3163 3163 3163 3163 3163 3165 3165 3165 3165 3166 3167 3166 3164 3162 3160 3159 3158 3157 3155 3152 3149 3146 3143 3141 3138
3137 3139 3138 3136 3138 3138 3139 3140 3143 3143 3145 3147 3148 3150 3152 3152 3156 3157 3157 3158 3160 3161 3162 3162 3162 3161 3162 3162 3161 3162 3162 3166 3167 3165 3163 3162 3160 3159 3158 3157 3155 3153 3150 3147 3145 3141 3137 3134 3131
3135 3134 3134 3135 3137 3139 3141 3142 3142 3146 3148 3149 3149 3150 3151 3152 3155 3155 3156 3157 3159 3160 3160 3160 3160 3160 3159 3160 3156 3159 3157 3153 3154 3154 3157 3158 3156 3155 3153 3152 3150 3146 3144 3140 3137 3134 3130 3125 3122
3130 3130 3131 3132 3138 3139 3139 3140 3141 3145 3149 3150 3151 3151 3152 3152 3153 3154 3156 3157 3159 3158 3157 3157 3158 3158 3157 3156 3154 3153 3151 3150 3155 3152 3154 3154 3153 3152 3149 3147 3145 3143 3138 3134 3129 3125 3122 3118 3112
3128 3128 3130 3133 3136 3138 3138 3141 3142 3145 3146 3147 3149 3150 3151 3152 3152 3154 3155 3156 3157 3156 3154 3155 3156 3155 3155 3154 3152 3150 3149 3150 3149 3151 3150 3150 3149 3148 3146 3142 3138 3136 3131 3127 3123 3118 3114 3110 3105
3129 3129 3130 3133 3135 3136 3138 3140 3140 3141 3143 3145 3146 3148 3149 3148 3151 3152 3153 3153 3153 3153 3151 3152 3151 3151 3151 3150 3150 3149 3149 3149 3149 3149 3148 3146 3145 3144 3140 3138 3133 3129 3126 3119 3114 3110 3105 3101 3096
3128 3128 3131 3131 3133 3135 3136 3136 3136 3138 3140 3142 3144 3146 3146 3146 3146 3148 3148 3148 3148 3148 3148 3147 3148 3147 3147 3148 3148 3148 3147 3145 3145 3145 3143 3142 3140 3136 3133 3128 3124 3118 3112 3108 3102 3097 3092 3089 3085
3127 3128 3129 3131 3131 3129 3130 3125 3133 3132 3134 3137 3138 3140 3141 3143 3142 3143 3143 3143 3143 3144 3145 3145 3145 3145 3145 3145 3143 3143 3143 3142 3141 3138 3135 3133 3131 3127 3122 3117 3112 3108 3103 3098 3092 3088 3082 3077 3072
3127 3128 3131 3131 3128 3132 3127 3127 3121 3131 3131 3131 3133 3135 3138 3138 3138 3139 3139 3140 3141 3142 3143 3143 3143 3143 3142 3141 3140 3140 3139 3138 3135 3133 3130 3125 3121 3115 3111 3108 3103 3099 3094 3088 3082 3076 3070 3066 3062
3129 3130 3131 3130 3128 3124 3123 3124 3121 3125 3128 3130 3131 3132 3133 3134 3135 3136 3137 3138 3139 3140 3140 3140 3140 3139 3138 3137 3137 3136 3135 3132 3129 3125 3123 3119 3113 3108 3103 3098 3094 3089 3083 3078 3072 3067 3062 3057 3053
3131 3131 3127 3126 3123 3124 3124 3126 3124 3123 3124 3128 3127 3128 3130 3131 3133 3134 3135 3135 3136 3137 3137 3136 3135 3134 3133 3133 3132 3130 3128 3126 3123 3119 3115 3112 3108 3104 3099 3093 3088 3082 3077 3070 3064 3059 3056 3051 3046
3129 3128 3126 3126 3122 3120 3122 3122 3120 3121 3122 3123 3124 3126 3127 3128 3130 3132 3133 3133 3133 3133 3132 3132 3131 3130 3129 3127 3125 3124 3121 3119 3116 3112 3109 3105 3101 3096 3090 3084 3077 3071 3066 3060 3055 3051 3048 3043 3038
3127 3128 3128 3127 3128 3128 3121 3119 3120 3119 3120 3121 3122 3124 3125 3125 3127 3129 3130 3130 3129 3129 3128 3128 3126 3124 3122 3121 3119 3117 3115 3112 3109 3106 3101 3096 3091 3086 3080 3074 3069 3063 3058 3053 3046 3041 3039 3035 3030
3127 3126 3127 3127 3127 3121 3110 3113 3111 3117 3118 3119 3121 3121 3122 3123 3125 3126 3126 3126 3125 3124 3123 3123 3121 3119 3118 3115 3113 3110 3107 3104 3101 3097 3092 3087 3083 3077 3071 3065 3060 3054 3049 3044 3038 3033 3030 3026 3022
3123 3123 3124 3124 3123 3121 3116 3111 3114 3117 3118 3118 3119 3119 3120 3121 3122 3122 3123 3121 3121 3120 3119 3119 3116 3114 3111 3109 3106 3104 3101 3096 3091 3088 3084 3078 3074 3068 3063 3057 3051 3045 3039 3034 3028 3024 3022 3017 3013
3119 3119 3120 3122 3121 3122 3121 3116 3113 3114 3116 3116 3118 3117 3118 3119 3119 3118 3117 3116 3116 3115 3114 3112 3110 3108 3106 3102 3100 3096 3093 3088 3084 3080 3075 3070 3065 3059 3054 3048 3042 3036 3030 3025 3020 3015 3011 3007 3004